NOZ388 ENEV-ENGM

Flight info

Callsign NOZ388
Flight time N/A
Altitude 36000
Route GEPTU DCT GUBAV DCT SOMUB DCT BELGU
Aircraft B738/M-SDE2E3FGHIRWXY/LB1

Departure

Time 2026-05-07 19:27
Airport Harstad/Narvik Airport (ENEV)

Arrival

Time N/A
Airport Oslo-Gardermoen International Airport (ENGM)
Time Latitude Longitude Altitude Speed Heading
2026-05-07 19:12 68.48979 16.68508 71 ft 0 kts 358°
2026-05-07 19:19 68.48975 16.68509 71 ft 2 kts 358°
2026-05-07 19:19 68.48960 16.68510 71 ft 2 kts 358°
2026-05-07 19:20 68.48945 16.68512 71 ft 2 kts 358°
2026-05-07 19:20 68.48930 16.68513 71 ft 2 kts 358°
2026-05-07 19:20 68.48917 16.68515 71 ft 0 kts 358°
2026-05-07 19:22 68.48922 16.68505 71 ft 2 kts 311°
2026-05-07 19:22 68.48920 16.68437 70 ft 5 kts 260°
2026-05-07 19:22 68.48914 16.68284 70 ft 10 kts 272°
2026-05-07 19:23 68.48970 16.68208 71 ft 12 kts 355°
2026-05-07 19:23 68.49073 16.68188 71 ft 17 kts 356°
2026-05-07 19:23 68.49210 16.68168 71 ft 21 kts 358°
2026-05-07 19:23 68.49354 16.68150 71 ft 20 kts 357°
2026-05-07 19:24 68.49496 16.68130 71 ft 20 kts 357°
2026-05-07 19:24 68.49639 16.68112 68 ft 21 kts 358°
2026-05-07 19:24 68.49787 16.68098 68 ft 21 kts 358°
2026-05-07 19:24 68.49930 16.68082 68 ft 20 kts 357°
2026-05-07 19:25 68.50064 16.68066 68 ft 18 kts 358°
2026-05-07 19:25 68.50189 16.68055 68 ft 17 kts 359°
2026-05-07 19:25 68.50301 16.68045 68 ft 13 kts 355°
2026-05-07 19:25 68.50372 16.67926 68 ft 12 kts 297°
2026-05-07 19:26 68.50362 16.67721 68 ft 11 kts 223°
2026-05-07 19:26 68.50281 16.67683 68 ft 17 kts 181°
2026-05-07 19:26 68.49895 16.67726 68 ft 96 kts 177°
2026-05-07 19:26 68.48970 16.67814 69 ft 165 kts 181°
2026-05-07 19:27 68.47802 16.67941 898 ft 168 kts 177°
2026-05-07 19:27 68.46677 16.68039 1806 ft 168 kts 181°
2026-05-07 19:27 68.45464 16.68008 2349 ft 183 kts 180°
2026-05-07 19:27 68.44161 16.68085 2897 ft 198 kts 179°
2026-05-07 19:28 68.42805 16.67357 3435 ft 213 kts 210°
2026-05-07 19:28 68.41824 16.64242 3972 ft 230 kts 250°
2026-05-07 19:28 68.41705 16.59903 4605 ft 244 kts 281°
2026-05-07 19:28 68.42299 16.55491 5271 ft 256 kts 290°
2026-05-07 19:29 68.42559 16.50771 6110 ft 258 kts 262°
2026-05-07 19:29 68.42051 16.46157 7021 ft 259 kts 248°
2026-05-07 19:29 68.41336 16.41699 7895 ft 263 kts 247°
2026-05-07 19:29 68.40632 16.37071 8728 ft 267 kts 246°
2026-05-07 19:30 68.39748 16.32664 9599 ft 270 kts 234°
2026-05-07 19:30 68.38477 16.28988 10426 ft 274 kts 222°
2026-05-07 19:30 68.36984 16.25582 10969 ft 288 kts 219°
2026-05-07 19:30 68.35403 16.22070 11481 ft 303 kts 220°
2026-05-07 19:31 68.33768 16.18345 11955 ft 318 kts 221°
2026-05-07 19:31 68.32077 16.14399 12566 ft 328 kts 221°
2026-05-07 19:31 68.30348 16.10334 13343 ft 332 kts 221°
2026-05-07 19:31 68.28561 16.06399 14139 ft 336 kts 218°
2026-05-07 19:32 68.26717 16.02625 14934 ft 339 kts 217°
2026-05-07 19:32 68.24827 15.98858 15705 ft 343 kts 217°
2026-05-07 19:32 68.22908 15.95038 16464 ft 346 kts 217°
2026-05-07 19:32 68.20977 15.91163 17197 ft 350 kts 217°
2026-05-07 19:33 68.19045 15.87257 17928 ft 353 kts 217°
2026-05-07 19:33 68.17090 15.83295 18656 ft 357 kts 217°
2026-05-07 19:33 68.15117 15.79301 19337 ft 360 kts 217°
2026-05-07 19:33 68.13103 15.75290 20003 ft 364 kts 216°
2026-05-07 19:34 68.11001 15.71576 20623 ft 368 kts 211°
2026-05-07 19:34 68.08707 15.68341 21222 ft 373 kts 206°
2026-05-07 19:34 68.06351 15.65493 21816 ft 377 kts 204°
2026-05-07 19:34 68.03947 15.62778 22384 ft 380 kts 204°
2026-05-07 19:35 68.01503 15.60074 22939 ft 384 kts 204°
2026-05-07 19:35 67.99026 15.57337 23480 ft 388 kts 204°
2026-05-07 19:35 67.96550 15.54585 24000 ft 392 kts 204°
2026-05-07 19:35 67.94039 15.51781 24517 ft 395 kts 204°
2026-05-07 19:36 67.91512 15.48949 25001 ft 399 kts 204°
2026-05-07 19:36 67.88935 15.46059 25461 ft 403 kts 204°
2026-05-07 19:36 67.86359 15.43168 25872 ft 407 kts 204°
2026-05-07 19:36 67.83729 15.40221 26275 ft 411 kts 205°
2026-05-07 19:37 67.81075 15.37254 26704 ft 414 kts 205°
2026-05-07 19:37 67.78410 15.34396 27062 ft 417 kts 201°
2026-05-07 19:37 67.75645 15.31952 27391 ft 422 kts 198°
2026-05-07 19:37 67.72852 15.29824 27726 ft 425 kts 197°
2026-05-07 19:38 67.69994 15.27781 28079 ft 427 kts 197°
2026-05-07 19:38 67.67087 15.25735 28409 ft 430 kts 197°
2026-05-07 19:38 67.64220 15.23704 28731 ft 432 kts 197°
2026-05-07 19:38 67.61309 15.21618 29028 ft 435 kts 197°
2026-05-07 19:39 67.58407 15.19514 29331 ft 437 kts 197°
2026-05-07 19:39 67.55505 15.17392 29616 ft 440 kts 198°
2026-05-07 19:39 67.52563 15.15232 29887 ft 443 kts 198°
2026-05-07 19:39 67.49571 15.13028 30148 ft 446 kts 198°
2026-05-07 19:40 67.46606 15.10845 30544 ft 444 kts 198°
2026-05-07 19:40 67.43676 15.08690 30863 ft 444 kts 198°
2026-05-07 19:40 67.40669 15.06482 31132 ft 445 kts 198°
2026-05-07 19:40 67.37721 15.04321 31377 ft 445 kts 198°
2026-05-07 19:41 67.34746 15.02144 31629 ft 445 kts 198°
2026-05-07 19:41 67.31755 14.99961 31858 ft 445 kts 198°
2026-05-07 19:41 67.28811 14.97817 32083 ft 446 kts 198°
2026-05-07 19:41 67.25863 14.95676 32316 ft 446 kts 198°